Change the Weather History Date:

Tuesday, December 4, 2012

  Actual Average Record
Temperature  
Mean Temperature 29 °F -  
Max Temperature 41 °F 30 °F 53 °F (1998)
Min Temperature 17 °F 18 °F -5 °F (2014)
Degree Days  
Heating Degree Days 36    
Moisture  
Dew Point 18 °F    
Average Humidity 63    
Maximum Humidity 81    
Minimum Humidity 40    
Precipitation  
Precipitation 0.00 in - - ()
Sea Level Pressure  
Sea Level Pressure 30.05 in    
Wind  
Wind Speed 7 mph (WNW)    
Max Wind Speed 14 mph    
Max Gust Speed 22 mph    
Visibility 10 miles    
Events      
Averages and records for this station are not official NWS values.
T = Trace of Precipitation, MM = Missing Value Source: NWS Daily Summary

Daily Weather History Graph

Daily Weather History Graph

Search for Another Location

Airport or City:

Trip Planner

Search our weather history database for the weather conditions in past years. The results will help you decide how hot, cold, wet, or windy it might be!

Date:

Astronomy

Dec. 04, 2012 Rise Set
Actual Time 7:25 AM CST 4:18 PM CST
Civil Twilight 6:52 AM CST 4:51 PM CST
Nautical Twilight 6:14 AM CST 5:29 PM CST
Astronomical Twilight 5:38 AM CST 6:05 PM CST
Moon 10:17 PM CST (12/4) 11:09 AM CST (12/4)
Length of Visible Light 9h 59m
Length of Day
8h 52m
Waning Gibbous, 69% of the Moon is Illuminated
Dec 4
Waning Gibbous
Dec 6
Last Quarter
Dec 13
New
Dec 19
First Quarter
Dec 28
Full

Hourly Weather History & Observations

Time (CST) Temp. Windchill Dew Point Humidity Pressure Visibility Wind Dir Wind Speed Gust Speed Precip Events Conditions
12:15 AM 41.0 °F 35.2 °F 33.8 °F 76% 29.80 in 10.0 mi WSW 9.2 mph - N/A   Clear
12:35 AM 39.2 °F 34.2 °F 33.8 °F 81% 29.80 in 10.0 mi SW 6.9 mph - N/A   Clear
12:55 AM 39.2 °F 33.0 °F 33.8 °F 81% 29.80 in 10.0 mi WSW 9.2 mph - N/A   Clear
1:15 AM 39.2 °F 33.6 °F 33.8 °F 81% 29.81 in 10.0 mi SW 8.1 mph - N/A   Clear
1:35 AM 39.2 °F 33.6 °F 33.8 °F 81% 29.81 in 10.0 mi WSW 8.1 mph - N/A   Clear
1:55 AM 39.2 °F 34.2 °F 33.8 °F 81% 29.81 in 10.0 mi WSW 6.9 mph - N/A   Clear
2:15 AM 39.2 °F 33.6 °F 32.0 °F 75% 29.82 in 10.0 mi WSW 8.1 mph - N/A   Clear
2:55 AM 39.2 °F 35.9 °F 30.2 °F 70% 29.84 in 10.0 mi West 4.6 mph - N/A   Clear
3:15 AM 39.2 °F 35.0 °F 30.2 °F 70% 29.83 in 10.0 mi WSW 5.8 mph - N/A   Clear
3:35 AM 39.2 °F 34.2 °F 30.2 °F 70% 29.84 in 10.0 mi WSW 6.9 mph - N/A   Clear
3:55 AM 39.2 °F 35.0 °F 30.2 °F 70% 29.85 in 10.0 mi West 5.8 mph - N/A   Clear
4:15 AM 37.4 °F 33.8 °F 30.2 °F 75% 29.85 in 10.0 mi West 4.6 mph - N/A   Clear
4:35 AM 37.4 °F 33.8 °F 30.2 °F 75% 29.85 in 10.0 mi West 4.6 mph - N/A   Clear
4:55 AM 37.4 °F 32.1 °F 28.4 °F 70% 29.86 in 10.0 mi West 6.9 mph - N/A   Clear
5:15 AM 37.4 °F 33.8 °F 28.4 °F 70% 29.87 in 10.0 mi WSW 4.6 mph - N/A   Clear
5:35 AM 35.6 °F 31.7 °F 28.4 °F 75% 29.88 in 10.0 mi West 4.6 mph - N/A   Clear
6:15 AM 35.6 °F 30.7 °F 26.6 °F 70% 29.90 in 10.0 mi West 5.8 mph - N/A   Clear
6:35 AM 33.8 °F 29.6 °F 26.6 °F 75% 29.91 in 10.0 mi West 4.6 mph - N/A   Clear
6:55 AM 33.8 °F 27.0 °F 24.8 °F 70% 29.92 in 10.0 mi West 8.1 mph 17.3 mph N/A   Scattered Clouds
7:15 AM 33.8 °F 30.8 °F 24.8 °F 70% 29.93 in 10.0 mi West 3.5 mph - N/A   Clear
7:35 AM 33.8 °F 30.8 °F 23.0 °F 65% 29.93 in 10.0 mi West 3.5 mph - N/A   Clear
7:55 AM 32.0 °F 27.5 °F 23.0 °F 69% 29.94 in 10.0 mi West 4.6 mph - N/A   Clear
8:15 AM 33.8 °F 28.6 °F 21.2 °F 60% 29.95 in 10.0 mi West 5.8 mph - N/A   Clear
8:35 AM 33.8 °F 27.7 °F 21.2 °F 60% 29.96 in 10.0 mi West 6.9 mph - N/A   Clear
8:55 AM 33.8 °F 26.4 °F 21.2 °F 60% 29.97 in 10.0 mi West 9.2 mph 17.3 mph N/A   Unknown
9:15 AM 33.8 °F 26.4 °F 21.2 °F 60% 29.98 in 10.0 mi West 9.2 mph - N/A   Unknown
9:35 AM 33.8 °F 28.6 °F 19.4 °F 56% 29.98 in 10.0 mi WNW 5.8 mph 16.1 mph N/A   Unknown
9:55 AM 33.8 °F 25.3 °F 19.4 °F 56% 29.99 in 10.0 mi NW 11.5 mph 16.1 mph N/A   Unknown
10:15 AM 32.0 °F 22.1 °F 19.4 °F 60% 30.00 in 10.0 mi WNW 13.8 mph 20.7 mph N/A   Unknown
10:35 AM 32.0 °F 23.6 °F 19.4 °F 60% 30.01 in 10.0 mi NW 10.4 mph - N/A   Unknown
10:55 AM 32.0 °F 23.0 °F 19.4 °F 60% 30.01 in 10.0 mi NW 11.5 mph 18.4 mph N/A   Unknown
11:15 AM 32.0 °F 24.2 °F 17.6 °F 55% 30.02 in 10.0 mi West 9.2 mph 16.1 mph N/A   Unknown
11:35 AM 30.2 °F 22.6 °F 15.8 °F 55% 30.02 in 10.0 mi West 8.1 mph 17.3 mph N/A   Unknown
11:55 AM 30.2 °F 21.3 °F 17.6 °F 60% 30.03 in 10.0 mi NW 10.4 mph 17.3 mph N/A   Unknown
12:15 PM 30.2 °F 20.2 °F 15.8 °F 55% 30.04 in 10.0 mi West 12.7 mph 20.7 mph N/A   Unknown
12:35 PM 30.2 °F 20.2 °F 14.0 °F 51% 30.05 in 10.0 mi West 12.7 mph 20.7 mph N/A   Clear
12:55 PM 30.2 °F 21.3 °F 14.0 °F 51% 30.06 in 10.0 mi WNW 10.4 mph 20.7 mph N/A   Clear
1:15 PM 32.0 °F 23.6 °F 12.2 °F 44% 30.06 in 10.0 mi West 10.4 mph 17.3 mph N/A   Clear
1:35 PM 30.2 °F 21.3 °F 10.4 °F 44% 30.07 in 10.0 mi WNW 10.4 mph 19.6 mph N/A   Clear
1:55 PM 30.2 °F 20.8 °F 10.4 °F 44% 30.08 in 10.0 mi WNW 11.5 mph 17.3 mph N/A   Clear
2:15 PM 30.2 °F 20.8 °F 8.6 °F 40% 30.09 in 10.0 mi WNW 11.5 mph 19.6 mph N/A   Clear
2:35 PM 30.2 °F 21.3 °F 8.6 °F 40% 30.10 in 10.0 mi West 10.4 mph 18.4 mph N/A   Clear
2:55 PM 28.4 °F 18.0 °F 6.8 °F 40% 30.11 in 10.0 mi WNW 12.7 mph 21.9 mph N/A   Clear
3:15 PM 28.4 °F 21.2 °F 8.6 °F 43% 30.12 in 10.0 mi WNW 6.9 mph - N/A   Clear
3:35 PM 28.4 °F 19.7 °F 10.4 °F 47% 30.13 in 10.0 mi WNW 9.2 mph - N/A   Clear
3:55 PM 28.4 °F 21.2 °F 10.4 °F 47% 30.14 in 10.0 mi West 6.9 mph - N/A   Clear
4:15 PM 26.6 °F 16.8 °F 10.4 °F 51% 30.16 in 10.0 mi NW 10.4 mph 17.3 mph N/A   Clear
4:35 PM 26.6 °F 19.1 °F 10.4 °F 51% 30.16 in 10.0 mi WNW 6.9 mph - N/A   Clear
4:55 PM 24.8 °F 17.9 °F 10.4 °F 54% 30.18 in 10.0 mi WNW 5.8 mph - N/A   Clear
5:15 PM 24.8 °F 16.9 °F 10.4 °F 54% 30.19 in 10.0 mi WNW 6.9 mph - N/A   Clear
5:35 PM 24.8 °F 17.9 °F 10.4 °F 54% 30.20 in 10.0 mi NW 5.8 mph - N/A   Clear
5:55 PM 24.8 °F 19.1 °F 12.2 °F 59% 30.22 in 10.0 mi NW 4.6 mph - N/A   Clear
6:15 PM 24.8 °F 16.1 °F 10.4 °F 54% 30.22 in 10.0 mi NW 8.1 mph - N/A   Clear
6:35 PM 23.0 °F 14.7 °F 10.4 °F 59% 30.23 in 10.0 mi NW 6.9 mph - N/A   Clear
6:55 PM 23.0 °F 14.7 °F 10.4 °F 59% 30.24 in 10.0 mi NW 6.9 mph - N/A   Clear
7:15 PM 23.0 °F 17.0 °F 12.2 °F 63% 30.23 in 10.0 mi NNW 4.6 mph - N/A   Clear
7:35 PM 21.2 °F 12.6 °F 12.2 °F 68% 30.24 in 10.0 mi NNW 6.9 mph - N/A   Clear
7:55 PM 21.2 °F 14.9 °F 12.2 °F 68% 30.25 in 10.0 mi NNW 4.6 mph - N/A   Clear
8:15 PM 21.2 °F 12.6 °F 12.2 °F 68% 30.26 in 10.0 mi NW 6.9 mph - N/A   Clear
8:35 PM 21.2 °F 11.7 °F 12.2 °F 68% 30.27 in 10.0 mi NNW 8.1 mph - N/A   Scattered Clouds
8:55 PM 21.2 °F 12.6 °F 12.2 °F 68% 30.28 in 10.0 mi NNW 6.9 mph - N/A   Mostly Cloudy
9:15 PM 21.2 °F 13.6 °F 12.2 °F 68% 30.28 in 10.0 mi NNW 5.8 mph - N/A   Overcast
9:35 PM 21.2 °F 11.7 °F 12.2 °F 68% 30.28 in 10.0 mi NNW 8.1 mph - N/A   Mostly Cloudy
9:55 PM 21.2 °F 11.7 °F 12.2 °F 68% 30.28 in 10.0 mi NNW 8.1 mph - N/A   Clear
10:15 PM 21.2 °F 12.6 °F 12.2 °F 68% 30.29 in 10.0 mi North 6.9 mph - N/A   Clear
10:35 PM 19.4 °F 14.3 °F 12.2 °F 74% 30.29 in 10.0 mi North 3.5 mph - N/A   Clear
10:55 PM 19.4 °F - 12.2 °F 74% 30.30 in 10.0 mi Calm Calm - N/A   Clear
11:15 PM 17.6 °F - 12.2 °F 79% 30.31 in 10.0 mi Calm Calm - N/A   Clear
11:35 PM 17.6 °F - 12.2 °F 79% 30.32 in 10.0 mi Calm Calm - N/A   Scattered Clouds
11:55 PM 17.6 °F - 12.2 °F 79% 30.33 in 10.0 mi Calm Calm - N/A   Mostly Cloudy